Index of /20260508/WXO-DD/model_rdps/10km/00/047
Name Last modified Size Description
Parent Directory -
20260508T00Z_MSC_RDPS_AbsoluteVorticity_IsbL-0250_RLatLon0.09_PT047H.grib2 2026-05-08 02:54 606K
20260508T00Z_MSC_RDPS_AbsoluteVorticity_IsbL-0500_RLatLon0.09_PT047H.grib2 2026-05-08 02:54 566K
20260508T00Z_MSC_RDPS_AbsoluteVorticity_IsbL-0700_RLatLon0.09_PT047H.grib2 2026-05-08 02:54 627K
20260508T00Z_MSC_RDPS_AbsoluteVorticity_IsbL-0850_RLatLon0.09_PT047H.grib2 2026-05-08 02:54 789K
20260508T00Z_MSC_RDPS_AirTemp_AGL-120m_RLatLon0.09_PT047H.grib2 2026-05-08 02:54 375K
20260508T00Z_MSC_RDPS_AirTemp_AGL-2m_RLatLon0.09_PT047H.grib2 2026-05-08 02:54 627K
20260508T00Z_MSC_RDPS_AirTemp_AGL-40m_RLatLon0.09_PT047H.grib2 2026-05-08 02:54 385K
20260508T00Z_MSC_RDPS_AirTemp_AGL-80m_RLatLon0.09_PT047H.grib2 2026-05-08 02:54 378K
20260508T00Z_MSC_RDPS_AirTemp_IsbL-0001_RLatLon0.09_PT047H.grib2 2026-05-08 02:54 312K
20260508T00Z_MSC_RDPS_AirTemp_IsbL-0005_RLatLon0.09_PT047H.grib2 2026-05-08 02:54 381K
20260508T00Z_MSC_RDPS_AirTemp_IsbL-0010_RLatLon0.09_PT047H.grib2 2026-05-08 02:54 304K
20260508T00Z_MSC_RDPS_AirTemp_IsbL-0020_RLatLon0.09_PT047H.grib2 2026-05-08 02:54 320K
20260508T00Z_MSC_RDPS_AirTemp_IsbL-0030_RLatLon0.09_PT047H.grib2 2026-05-08 02:54 337K
20260508T00Z_MSC_RDPS_AirTemp_IsbL-0050_RLatLon0.09_PT047H.grib2 2026-05-08 02:54 309K
20260508T00Z_MSC_RDPS_AirTemp_IsbL-0100_RLatLon0.09_PT047H.grib2 2026-05-08 02:54 429K
20260508T00Z_MSC_RDPS_AirTemp_IsbL-0150_RLatLon0.09_PT047H.grib2 2026-05-08 02:54 417K
20260508T00Z_MSC_RDPS_AirTemp_IsbL-0175_RLatLon0.09_PT047H.grib2 2026-05-08 02:54 412K
20260508T00Z_MSC_RDPS_AirTemp_IsbL-0200_RLatLon0.09_PT047H.grib2 2026-05-08 02:54 418K
20260508T00Z_MSC_RDPS_AirTemp_IsbL-0225_RLatLon0.09_PT047H.grib2 2026-05-08 02:54 417K
20260508T00Z_MSC_RDPS_AirTemp_IsbL-0250_RLatLon0.09_PT047H.grib2 2026-05-08 02:54 425K
20260508T00Z_MSC_RDPS_AirTemp_IsbL-0275_RLatLon0.09_PT047H.grib2 2026-05-08 02:54 405K
20260508T00Z_MSC_RDPS_AirTemp_IsbL-0300_RLatLon0.09_PT047H.grib2 2026-05-08 02:54 435K
20260508T00Z_MSC_RDPS_AirTemp_IsbL-0350_RLatLon0.09_PT047H.grib2 2026-05-08 02:54 423K
20260508T00Z_MSC_RDPS_AirTemp_IsbL-0400_RLatLon0.09_PT047H.grib2 2026-05-08 02:54 427K
20260508T00Z_MSC_RDPS_AirTemp_IsbL-0450_RLatLon0.09_PT047H.grib2 2026-05-08 02:54 436K
20260508T00Z_MSC_RDPS_AirTemp_IsbL-0500_RLatLon0.09_PT047H.grib2 2026-05-08 02:54 449K
20260508T00Z_MSC_RDPS_AirTemp_IsbL-0550_RLatLon0.09_PT047H.grib2 2026-05-08 02:54 469K
20260508T00Z_MSC_RDPS_AirTemp_IsbL-0600_RLatLon0.09_PT047H.grib2 2026-05-08 02:54 488K
20260508T00Z_MSC_RDPS_AirTemp_IsbL-0650_RLatLon0.09_PT047H.grib2 2026-05-08 02:54 505K
20260508T00Z_MSC_RDPS_AirTemp_IsbL-0700_RLatLon0.09_PT047H.grib2 2026-05-08 02:54 533K
20260508T00Z_MSC_RDPS_AirTemp_IsbL-0750_RLatLon0.09_PT047H.grib2 2026-05-08 02:54 535K
20260508T00Z_MSC_RDPS_AirTemp_IsbL-0800_RLatLon0.09_PT047H.grib2 2026-05-08 02:54 463K
20260508T00Z_MSC_RDPS_AirTemp_IsbL-0850_RLatLon0.09_PT047H.grib2 2026-05-08 02:54 503K
20260508T00Z_MSC_RDPS_AirTemp_IsbL-0875_RLatLon0.09_PT047H.grib2 2026-05-08 02:54 520K
20260508T00Z_MSC_RDPS_AirTemp_IsbL-0900_RLatLon0.09_PT047H.grib2 2026-05-08 02:54 526K
20260508T00Z_MSC_RDPS_AirTemp_IsbL-0925_RLatLon0.09_PT047H.grib2 2026-05-08 02:54 526K
20260508T00Z_MSC_RDPS_AirTemp_IsbL-0950_RLatLon0.09_PT047H.grib2 2026-05-08 02:54 527K
20260508T00Z_MSC_RDPS_AirTemp_IsbL-0970_RLatLon0.09_PT047H.grib2 2026-05-08 02:54 522K
20260508T00Z_MSC_RDPS_AirTemp_IsbL-0985_RLatLon0.09_PT047H.grib2 2026-05-08 02:54 508K
20260508T00Z_MSC_RDPS_AirTemp_IsbL-1000_RLatLon0.09_PT047H.grib2 2026-05-08 02:54 498K
20260508T00Z_MSC_RDPS_AirTemp_IsbL-1015_RLatLon0.09_PT047H.grib2 2026-05-08 02:54 498K
20260508T00Z_MSC_RDPS_Albedo_Sfc_RLatLon0.09_PT047H.grib2 2026-05-08 02:54 152K
20260508T00Z_MSC_RDPS_CAPE_Sfc_RLatLon0.09_PT047H.grib2 2026-05-08 02:54 1.8M
20260508T00Z_MSC_RDPS_CIN_Sfc_RLatLon0.09_PT047H.grib2 2026-05-08 02:54 1.4M
20260508T00Z_MSC_RDPS_CloudWater_EAtm_RLatLon0.09_PT047H.grib2 2026-05-08 02:54 230K
20260508T00Z_MSC_RDPS_ConvectivePrecip-Accum_Sfc_RLatLon0.09_PT047H.grib2 2026-05-08 02:54 1.1M
20260508T00Z_MSC_RDPS_DewPointDepression_AGL-2m_RLatLon0.09_PT047H.grib2 2026-05-08 02:54 414K
20260508T00Z_MSC_RDPS_DewPointDepression_IsbL-0001_RLatLon0.09_PT047H.grib2 2026-05-08 02:54 193
20260508T00Z_MSC_RDPS_DewPointDepression_IsbL-0005_RLatLon0.09_PT047H.grib2 2026-05-08 02:54 193
20260508T00Z_MSC_RDPS_DewPointDepression_IsbL-0010_RLatLon0.09_PT047H.grib2 2026-05-08 02:54 193
20260508T00Z_MSC_RDPS_DewPointDepression_IsbL-0020_RLatLon0.09_PT047H.grib2 2026-05-08 02:54 193
20260508T00Z_MSC_RDPS_DewPointDepression_IsbL-0030_RLatLon0.09_PT047H.grib2 2026-05-08 02:54 193
20260508T00Z_MSC_RDPS_DewPointDepression_IsbL-0050_RLatLon0.09_PT047H.grib2 2026-05-08 02:54 79K
20260508T00Z_MSC_RDPS_DewPointDepression_IsbL-0100_RLatLon0.09_PT047H.grib2 2026-05-08 02:54 114K
20260508T00Z_MSC_RDPS_DewPointDepression_IsbL-0150_RLatLon0.09_PT047H.grib2 2026-05-08 02:54 152K
20260508T00Z_MSC_RDPS_DewPointDepression_IsbL-0175_RLatLon0.09_PT047H.grib2 2026-05-08 02:54 180K
20260508T00Z_MSC_RDPS_DewPointDepression_IsbL-0200_RLatLon0.09_PT047H.grib2 2026-05-08 02:54 224K
20260508T00Z_MSC_RDPS_DewPointDepression_IsbL-0225_RLatLon0.09_PT047H.grib2 2026-05-08 02:54 271K
20260508T00Z_MSC_RDPS_DewPointDepression_IsbL-0250_RLatLon0.09_PT047H.grib2 2026-05-08 02:54 311K
20260508T00Z_MSC_RDPS_DewPointDepression_IsbL-0275_RLatLon0.09_PT047H.grib2 2026-05-08 02:54 315K
20260508T00Z_MSC_RDPS_DewPointDepression_IsbL-0300_RLatLon0.09_PT047H.grib2 2026-05-08 02:54 327K
20260508T00Z_MSC_RDPS_DewPointDepression_IsbL-0350_RLatLon0.09_PT047H.grib2 2026-05-08 02:54 330K
20260508T00Z_MSC_RDPS_DewPointDepression_IsbL-0400_RLatLon0.09_PT047H.grib2 2026-05-08 02:54 340K
20260508T00Z_MSC_RDPS_DewPointDepression_IsbL-0450_RLatLon0.09_PT047H.grib2 2026-05-08 02:54 347K
20260508T00Z_MSC_RDPS_DewPointDepression_IsbL-0500_RLatLon0.09_PT047H.grib2 2026-05-08 02:54 353K
20260508T00Z_MSC_RDPS_DewPointDepression_IsbL-0550_RLatLon0.09_PT047H.grib2 2026-05-08 02:54 363K
20260508T00Z_MSC_RDPS_DewPointDepression_IsbL-0600_RLatLon0.09_PT047H.grib2 2026-05-08 02:54 378K
20260508T00Z_MSC_RDPS_DewPointDepression_IsbL-0650_RLatLon0.09_PT047H.grib2 2026-05-08 02:54 391K
20260508T00Z_MSC_RDPS_DewPointDepression_IsbL-0700_RLatLon0.09_PT047H.grib2 2026-05-08 02:54 406K
20260508T00Z_MSC_RDPS_DewPointDepression_IsbL-0750_RLatLon0.09_PT047H.grib2 2026-05-08 02:54 427K
20260508T00Z_MSC_RDPS_DewPointDepression_IsbL-0800_RLatLon0.09_PT047H.grib2 2026-05-08 02:54 459K
20260508T00Z_MSC_RDPS_DewPointDepression_IsbL-0850_RLatLon0.09_PT047H.grib2 2026-05-08 02:54 475K
20260508T00Z_MSC_RDPS_DewPointDepression_IsbL-0875_RLatLon0.09_PT047H.grib2 2026-05-08 02:54 470K
20260508T00Z_MSC_RDPS_DewPointDepression_IsbL-0900_RLatLon0.09_PT047H.grib2 2026-05-08 02:54 460K
20260508T00Z_MSC_RDPS_DewPointDepression_IsbL-0925_RLatLon0.09_PT047H.grib2 2026-05-08 02:54 449K
20260508T00Z_MSC_RDPS_DewPointDepression_IsbL-0950_RLatLon0.09_PT047H.grib2 2026-05-08 02:54 438K
20260508T00Z_MSC_RDPS_DewPointDepression_IsbL-0970_RLatLon0.09_PT047H.grib2 2026-05-08 02:54 431K
20260508T00Z_MSC_RDPS_DewPointDepression_IsbL-0985_RLatLon0.09_PT047H.grib2 2026-05-08 02:54 424K
20260508T00Z_MSC_RDPS_DewPointDepression_IsbL-1000_RLatLon0.09_PT047H.grib2 2026-05-08 02:54 420K
20260508T00Z_MSC_RDPS_DewPointDepression_IsbL-1015_RLatLon0.09_PT047H.grib2 2026-05-08 02:54 411K
20260508T00Z_MSC_RDPS_DewPoint_AGL-2m_RLatLon0.09_PT047H.grib2 2026-05-08 02:54 394K
20260508T00Z_MSC_RDPS_DownwardLongwaveRadiationFlux-Accum_Sfc_RLatLon0.09_PT047H.grib2 2026-05-08 02:54 371K
20260508T00Z_MSC_RDPS_DownwardShortwaveRadiationFlux-Accum_NTAtm_RLatLon0.09_PT047H.grib2 2026-05-08 02:54 146K
20260508T00Z_MSC_RDPS_DownwardShortwaveRadiationFlux-Accum_Sfc_RLatLon0.09_PT047H.grib2 2026-05-08 02:54 567K
20260508T00Z_MSC_RDPS_FreezingRain-Accum1h_Sfc_RLatLon0.09_PT047H.grib2 2026-05-08 02:54 20K
20260508T00Z_MSC_RDPS_FreezingRain-Accum_Sfc_RLatLon0.09_PT047H.grib2 2026-05-08 02:54 136K
20260508T00Z_MSC_RDPS_GeopotentialHeight_IsbL-0001_RLatLon0.09_PT047H.grib2 2026-05-08 02:54 248K
20260508T00Z_MSC_RDPS_GeopotentialHeight_IsbL-0005_RLatLon0.09_PT047H.grib2 2026-05-08 02:54 311K
20260508T00Z_MSC_RDPS_GeopotentialHeight_IsbL-0010_RLatLon0.09_PT047H.grib2 2026-05-08 02:54 311K
20260508T00Z_MSC_RDPS_GeopotentialHeight_IsbL-0020_RLatLon0.09_PT047H.grib2 2026-05-08 02:54 311K
20260508T00Z_MSC_RDPS_GeopotentialHeight_IsbL-0030_RLatLon0.09_PT047H.grib2 2026-05-08 02:54 312K
20260508T00Z_MSC_RDPS_GeopotentialHeight_IsbL-0050_RLatLon0.09_PT047H.grib2 2026-05-08 02:54 312K
20260508T00Z_MSC_RDPS_GeopotentialHeight_IsbL-0100_RLatLon0.09_PT047H.grib2 2026-05-08 02:54 287K
20260508T00Z_MSC_RDPS_GeopotentialHeight_IsbL-0150_RLatLon0.09_PT047H.grib2 2026-05-08 02:54 229K
20260508T00Z_MSC_RDPS_GeopotentialHeight_IsbL-0175_RLatLon0.09_PT047H.grib2 2026-05-08 02:54 233K
20260508T00Z_MSC_RDPS_GeopotentialHeight_IsbL-0200_RLatLon0.09_PT047H.grib2 2026-05-08 02:54 236K
20260508T00Z_MSC_RDPS_GeopotentialHeight_IsbL-0225_RLatLon0.09_PT047H.grib2 2026-05-08 02:54 268K
20260508T00Z_MSC_RDPS_GeopotentialHeight_IsbL-0250_RLatLon0.09_PT047H.grib2 2026-05-08 02:54 269K
20260508T00Z_MSC_RDPS_GeopotentialHeight_IsbL-0275_RLatLon0.09_PT047H.grib2 2026-05-08 02:54 268K
20260508T00Z_MSC_RDPS_GeopotentialHeight_IsbL-0300_RLatLon0.09_PT047H.grib2 2026-05-08 02:54 237K
20260508T00Z_MSC_RDPS_GeopotentialHeight_IsbL-0350_RLatLon0.09_PT047H.grib2 2026-05-08 02:54 233K
20260508T00Z_MSC_RDPS_GeopotentialHeight_IsbL-0400_RLatLon0.09_PT047H.grib2 2026-05-08 02:54 229K
20260508T00Z_MSC_RDPS_GeopotentialHeight_IsbL-0450_RLatLon0.09_PT047H.grib2 2026-05-08 02:54 297K
20260508T00Z_MSC_RDPS_GeopotentialHeight_IsbL-0500_RLatLon0.09_PT047H.grib2 2026-05-08 02:54 292K
20260508T00Z_MSC_RDPS_GeopotentialHeight_IsbL-0550_RLatLon0.09_PT047H.grib2 2026-05-08 02:54 288K
20260508T00Z_MSC_RDPS_GeopotentialHeight_IsbL-0600_RLatLon0.09_PT047H.grib2 2026-05-08 02:54 285K
20260508T00Z_MSC_RDPS_GeopotentialHeight_IsbL-0650_RLatLon0.09_PT047H.grib2 2026-05-08 02:54 284K
20260508T00Z_MSC_RDPS_GeopotentialHeight_IsbL-0700_RLatLon0.09_PT047H.grib2 2026-05-08 02:54 257K
20260508T00Z_MSC_RDPS_GeopotentialHeight_IsbL-0750_RLatLon0.09_PT047H.grib2 2026-05-08 02:54 258K
20260508T00Z_MSC_RDPS_GeopotentialHeight_IsbL-0800_RLatLon0.09_PT047H.grib2 2026-05-08 02:54 264K
20260508T00Z_MSC_RDPS_GeopotentialHeight_IsbL-0850_RLatLon0.09_PT047H.grib2 2026-05-08 02:54 356K
20260508T00Z_MSC_RDPS_GeopotentialHeight_IsbL-0875_RLatLon0.09_PT047H.grib2 2026-05-08 02:54 359K
20260508T00Z_MSC_RDPS_GeopotentialHeight_IsbL-0900_RLatLon0.09_PT047H.grib2 2026-05-08 02:54 363K
20260508T00Z_MSC_RDPS_GeopotentialHeight_IsbL-0925_RLatLon0.09_PT047H.grib2 2026-05-08 02:54 367K
20260508T00Z_MSC_RDPS_GeopotentialHeight_IsbL-0950_RLatLon0.09_PT047H.grib2 2026-05-08 02:54 368K
20260508T00Z_MSC_RDPS_GeopotentialHeight_IsbL-0970_RLatLon0.09_PT047H.grib2 2026-05-08 02:54 376K
20260508T00Z_MSC_RDPS_GeopotentialHeight_IsbL-0985_RLatLon0.09_PT047H.grib2 2026-05-08 02:54 385K
20260508T00Z_MSC_RDPS_GeopotentialHeight_IsbL-1000_RLatLon0.09_PT047H.grib2 2026-05-08 02:54 397K
20260508T00Z_MSC_RDPS_GeopotentialHeight_IsbL-1015_RLatLon0.09_PT047H.grib2 2026-05-08 02:54 412K
20260508T00Z_MSC_RDPS_HighLowPressure_MSL_RLatLon0.09_PT047H.json 2026-05-08 02:46 20K
20260508T00Z_MSC_RDPS_Humidex_Sfc_RLatLon0.09_PT047H.grib2 2026-05-08 02:54 2.4M
20260508T00Z_MSC_RDPS_IcePellets-Accum1h_Sfc_RLatLon0.09_PT047H.grib2 2026-05-08 02:54 7.0K
20260508T00Z_MSC_RDPS_IcePellets-Accum_Sfc_RLatLon0.09_PT047H.grib2 2026-05-08 02:54 22K
20260508T00Z_MSC_RDPS_KIndex_Sfc_RLatLon0.09_PT047H.grib2 2026-05-08 02:54 2.5M
20260508T00Z_MSC_RDPS_LatentHeatNetFlux_Sfc_RLatLon0.09_PT047H.grib2 2026-05-08 02:54 297K
20260508T00Z_MSC_RDPS_LiftedIndex-MU-VT_IsbL-0500_RLatLon0.09_PT047H.grib2 2026-05-08 02:54 2.4M
20260508T00Z_MSC_RDPS_NetLongwaveRadiationFlux-Accum_Sfc_RLatLon0.09_PT047H.grib2 2026-05-08 02:54 545K
20260508T00Z_MSC_RDPS_NetShortwaveRadiationFlux-Accum_Sfc_RLatLon0.09_PT047H.grib2 2026-05-08 02:54 567K
20260508T00Z_MSC_RDPS_PlanetaryBoundaryLayerHeight_Sfc_RLatLon0.09_PT047H.grib2 2026-05-08 02:54 1.0M
20260508T00Z_MSC_RDPS_Precip-Accum1h_Sfc_RLatLon0.09_PT047H.grib2 2026-05-08 02:54 1.2M
20260508T00Z_MSC_RDPS_Precip-Accum_Sfc_RLatLon0.09_PT047H.grib2 2026-05-08 02:54 1.9M
20260508T00Z_MSC_RDPS_PrecipRate_Sfc_RLatLon0.09_PT047H.grib2 2026-05-08 02:54 186K
20260508T00Z_MSC_RDPS_PrecipType-Instant_Sfc_RLatLon0.09_PT047H.grib2 2026-05-08 02:54 617K
20260508T00Z_MSC_RDPS_Pressure-Trend3h_Sfc_RLatLon0.09_PT047H.grib2 2026-05-08 02:54 1.2M
20260508T00Z_MSC_RDPS_Pressure_MSL_RLatLon0.09_PT047H.grib2 2026-05-08 02:54 330K
20260508T00Z_MSC_RDPS_Pressure_PVU-1.5_RLatLon0.09_PT047H.grib2 2026-05-08 02:54 2.3M
20260508T00Z_MSC_RDPS_Pressure_PVU-1_RLatLon0.09_PT047H.grib2 2026-05-08 02:54 2.4M
20260508T00Z_MSC_RDPS_Pressure_PVU-2_RLatLon0.09_PT047H.grib2 2026-05-08 02:54 2.3M
20260508T00Z_MSC_RDPS_Pressure_Sfc_RLatLon0.09_PT047H.grib2 2026-05-08 02:54 498K
20260508T00Z_MSC_RDPS_RadiativeTemp_Sfc_RLatLon0.09_PT047H.grib2 2026-05-08 02:54 323K
20260508T00Z_MSC_RDPS_Rain-Accum1h_Sfc_RLatLon0.09_PT047H.grib2 2026-05-08 02:54 657K
20260508T00Z_MSC_RDPS_Rain-Accum_Sfc_RLatLon0.09_PT047H.grib2 2026-05-08 02:54 1.7M
20260508T00Z_MSC_RDPS_RelativeHumidity_AGL-2m_RLatLon0.09_PT047H.grib2 2026-05-08 02:54 1.0M
20260508T00Z_MSC_RDPS_RelativeHumidity_IsbL-0010_RLatLon0.09_PT047H.grib2 2026-05-08 02:54 589K
20260508T00Z_MSC_RDPS_RelativeHumidity_IsbL-0020_RLatLon0.09_PT047H.grib2 2026-05-08 02:54 611K
20260508T00Z_MSC_RDPS_RelativeHumidity_IsbL-0030_RLatLon0.09_PT047H.grib2 2026-05-08 02:54 628K
20260508T00Z_MSC_RDPS_RelativeHumidity_IsbL-0050_RLatLon0.09_PT047H.grib2 2026-05-08 02:54 356K
20260508T00Z_MSC_RDPS_RelativeHumidity_IsbL-0100_RLatLon0.09_PT047H.grib2 2026-05-08 02:54 284K
20260508T00Z_MSC_RDPS_RelativeHumidity_IsbL-0150_RLatLon0.09_PT047H.grib2 2026-05-08 02:54 425K
20260508T00Z_MSC_RDPS_RelativeHumidity_IsbL-0175_RLatLon0.09_PT047H.grib2 2026-05-08 02:54 478K
20260508T00Z_MSC_RDPS_RelativeHumidity_IsbL-0200_RLatLon0.09_PT047H.grib2 2026-05-08 02:54 549K
20260508T00Z_MSC_RDPS_RelativeHumidity_IsbL-0225_RLatLon0.09_PT047H.grib2 2026-05-08 02:54 623K
20260508T00Z_MSC_RDPS_RelativeHumidity_IsbL-0250_RLatLon0.09_PT047H.grib2 2026-05-08 02:54 698K
20260508T00Z_MSC_RDPS_RelativeHumidity_IsbL-0275_RLatLon0.09_PT047H.grib2 2026-05-08 02:54 724K
20260508T00Z_MSC_RDPS_RelativeHumidity_IsbL-0300_RLatLon0.09_PT047H.grib2 2026-05-08 02:54 759K
20260508T00Z_MSC_RDPS_RelativeHumidity_IsbL-0350_RLatLon0.09_PT047H.grib2 2026-05-08 02:54 772K
20260508T00Z_MSC_RDPS_RelativeHumidity_IsbL-0400_RLatLon0.09_PT047H.grib2 2026-05-08 02:54 788K
20260508T00Z_MSC_RDPS_RelativeHumidity_IsbL-0450_RLatLon0.09_PT047H.grib2 2026-05-08 02:54 799K
20260508T00Z_MSC_RDPS_RelativeHumidity_IsbL-0500_RLatLon0.09_PT047H.grib2 2026-05-08 02:54 808K
20260508T00Z_MSC_RDPS_RelativeHumidity_IsbL-0550_RLatLon0.09_PT047H.grib2 2026-05-08 02:54 823K
20260508T00Z_MSC_RDPS_RelativeHumidity_IsbL-0600_RLatLon0.09_PT047H.grib2 2026-05-08 02:54 846K
20260508T00Z_MSC_RDPS_RelativeHumidity_IsbL-0650_RLatLon0.09_PT047H.grib2 2026-05-08 02:54 864K
20260508T00Z_MSC_RDPS_RelativeHumidity_IsbL-0700_RLatLon0.09_PT047H.grib2 2026-05-08 02:54 903K
20260508T00Z_MSC_RDPS_RelativeHumidity_IsbL-0750_RLatLon0.09_PT047H.grib2 2026-05-08 02:54 950K
20260508T00Z_MSC_RDPS_RelativeHumidity_IsbL-0800_RLatLon0.09_PT047H.grib2 2026-05-08 02:54 1.0M
20260508T00Z_MSC_RDPS_RelativeHumidity_IsbL-0850_RLatLon0.09_PT047H.grib2 2026-05-08 02:54 1.0M
20260508T00Z_MSC_RDPS_RelativeHumidity_IsbL-0875_RLatLon0.09_PT047H.grib2 2026-05-08 02:54 1.1M
20260508T00Z_MSC_RDPS_RelativeHumidity_IsbL-0900_RLatLon0.09_PT047H.grib2 2026-05-08 02:54 1.1M
20260508T00Z_MSC_RDPS_RelativeHumidity_IsbL-0925_RLatLon0.09_PT047H.grib2 2026-05-08 02:54 1.1M
20260508T00Z_MSC_RDPS_RelativeHumidity_IsbL-0950_RLatLon0.09_PT047H.grib2 2026-05-08 02:54 1.1M
20260508T00Z_MSC_RDPS_RelativeHumidity_IsbL-0970_RLatLon0.09_PT047H.grib2 2026-05-08 02:54 1.0M
20260508T00Z_MSC_RDPS_RelativeHumidity_IsbL-0985_RLatLon0.09_PT047H.grib2 2026-05-08 02:54 1.0M
20260508T00Z_MSC_RDPS_RelativeHumidity_IsbL-1000_RLatLon0.09_PT047H.grib2 2026-05-08 02:54 1.0M
20260508T00Z_MSC_RDPS_RelativeHumidity_IsbL-1015_RLatLon0.09_PT047H.grib2 2026-05-08 02:54 1.0M
20260508T00Z_MSC_RDPS_Runoff-Accum_Sfc_RLatLon0.09_PT047H.grib2 2026-05-08 02:54 34K
20260508T00Z_MSC_RDPS_SWEATIndex_Sfc_RLatLon0.09_PT047H.grib2 2026-05-08 02:54 2.5M
20260508T00Z_MSC_RDPS_SeeingIndex_EAtm_RLatLon0.09_PT047H.grib2 2026-05-08 02:54 1.0M
20260508T00Z_MSC_RDPS_SensibleHeatNetFlux_Sfc_RLatLon0.09_PT047H.grib2 2026-05-08 02:54 254K
20260508T00Z_MSC_RDPS_ShowalterIndex_IsbL-0500_RLatLon0.09_PT047H.grib2 2026-05-08 02:54 2.6M
20260508T00Z_MSC_RDPS_SkyTransparencyIndex_EAtm_RLatLon0.09_PT047H.grib2 2026-05-08 02:54 711K
20260508T00Z_MSC_RDPS_Snow-Accum1h_Sfc_RLatLon0.09_PT047H.grib2 2026-05-08 02:54 359K
20260508T00Z_MSC_RDPS_Snow-Accum_Sfc_RLatLon0.09_PT047H.grib2 2026-05-08 02:54 677K
20260508T00Z_MSC_RDPS_SnowDensity_Sfc_RLatLon0.09_PT047H.grib2 2026-05-08 02:54 171K
20260508T00Z_MSC_RDPS_SnowDepth_Sfc_RLatLon0.09_PT047H.grib2 2026-05-08 02:54 622K
20260508T00Z_MSC_RDPS_SoilTemp_DBS-0to10cm_RLatLon0.09_PT047H.grib2 2026-05-08 02:54 241K
20260508T00Z_MSC_RDPS_SoilTemp_Sfc_RLatLon0.09_PT047H.grib2 2026-05-08 02:54 276K
20260508T00Z_MSC_RDPS_SoilVolumetricIceContent_Sfc_RLatLon0.09_PT047H.grib2 2026-05-08 02:54 144K
20260508T00Z_MSC_RDPS_SoilVolumetricWaterContent_DBS-0to10cm_RLatLon0.09_PT047H.grib2 2026-05-08 02:54 289K
20260508T00Z_MSC_RDPS_SoilVolumetricWaterContent_DBS-0to1cm_RLatLon0.09_PT047H.grib2 2026-05-08 02:54 341K
20260508T00Z_MSC_RDPS_SpecificHumidity_AGL-120m_RLatLon0.09_PT047H.grib2 2026-05-08 02:54 501K
20260508T00Z_MSC_RDPS_SpecificHumidity_AGL-2m_RLatLon0.09_PT047H.grib2 2026-05-08 02:54 676K
20260508T00Z_MSC_RDPS_SpecificHumidity_AGL-40m_RLatLon0.09_PT047H.grib2 2026-05-08 02:54 508K
20260508T00Z_MSC_RDPS_SpecificHumidity_AGL-80m_RLatLon0.09_PT047H.grib2 2026-05-08 02:54 503K
20260508T00Z_MSC_RDPS_SpecificHumidity_IsbL-0001_RLatLon0.09_PT047H.grib2 2026-05-08 02:54 365K
20260508T00Z_MSC_RDPS_SpecificHumidity_IsbL-0005_RLatLon0.09_PT047H.grib2 2026-05-08 02:54 372K
20260508T00Z_MSC_RDPS_SpecificHumidity_IsbL-0010_RLatLon0.09_PT047H.grib2 2026-05-08 02:54 399K
20260508T00Z_MSC_RDPS_SpecificHumidity_IsbL-0020_RLatLon0.09_PT047H.grib2 2026-05-08 02:54 493K
20260508T00Z_MSC_RDPS_SpecificHumidity_IsbL-0030_RLatLon0.09_PT047H.grib2 2026-05-08 02:54 374K
20260508T00Z_MSC_RDPS_SpecificHumidity_IsbL-0050_RLatLon0.09_PT047H.grib2 2026-05-08 02:54 484K
20260508T00Z_MSC_RDPS_SpecificHumidity_IsbL-0100_RLatLon0.09_PT047H.grib2 2026-05-08 02:54 442K
20260508T00Z_MSC_RDPS_SpecificHumidity_IsbL-0150_RLatLon0.09_PT047H.grib2 2026-05-08 02:54 492K
20260508T00Z_MSC_RDPS_SpecificHumidity_IsbL-0175_RLatLon0.09_PT047H.grib2 2026-05-08 02:54 444K
20260508T00Z_MSC_RDPS_SpecificHumidity_IsbL-0200_RLatLon0.09_PT047H.grib2 2026-05-08 02:54 475K
20260508T00Z_MSC_RDPS_SpecificHumidity_IsbL-0225_RLatLon0.09_PT047H.grib2 2026-05-08 02:54 466K
20260508T00Z_MSC_RDPS_SpecificHumidity_IsbL-0250_RLatLon0.09_PT047H.grib2 2026-05-08 02:54 573K
20260508T00Z_MSC_RDPS_SpecificHumidity_IsbL-0275_RLatLon0.09_PT047H.grib2 2026-05-08 02:54 487K
20260508T00Z_MSC_RDPS_SpecificHumidity_IsbL-0300_RLatLon0.09_PT047H.grib2 2026-05-08 02:54 456K
20260508T00Z_MSC_RDPS_SpecificHumidity_IsbL-0350_RLatLon0.09_PT047H.grib2 2026-05-08 02:54 447K
20260508T00Z_MSC_RDPS_SpecificHumidity_IsbL-0400_RLatLon0.09_PT047H.grib2 2026-05-08 02:54 529K
20260508T00Z_MSC_RDPS_SpecificHumidity_IsbL-0450_RLatLon0.09_PT047H.grib2 2026-05-08 02:54 585K
20260508T00Z_MSC_RDPS_SpecificHumidity_IsbL-0500_RLatLon0.09_PT047H.grib2 2026-05-08 02:54 524K
20260508T00Z_MSC_RDPS_SpecificHumidity_IsbL-0550_RLatLon0.09_PT047H.grib2 2026-05-08 02:54 595K
20260508T00Z_MSC_RDPS_SpecificHumidity_IsbL-0600_RLatLon0.09_PT047H.grib2 2026-05-08 02:54 650K
20260508T00Z_MSC_RDPS_SpecificHumidity_IsbL-0650_RLatLon0.09_PT047H.grib2 2026-05-08 02:54 573K
20260508T00Z_MSC_RDPS_SpecificHumidity_IsbL-0700_RLatLon0.09_PT047H.grib2 2026-05-08 02:54 625K
20260508T00Z_MSC_RDPS_SpecificHumidity_IsbL-0750_RLatLon0.09_PT047H.grib2 2026-05-08 02:54 700K
20260508T00Z_MSC_RDPS_SpecificHumidity_IsbL-0800_RLatLon0.09_PT047H.grib2 2026-05-08 02:54 774K
20260508T00Z_MSC_RDPS_SpecificHumidity_IsbL-0850_RLatLon0.09_PT047H.grib2 2026-05-08 02:54 834K
20260508T00Z_MSC_RDPS_SpecificHumidity_IsbL-0875_RLatLon0.09_PT047H.grib2 2026-05-08 02:54 714K
20260508T00Z_MSC_RDPS_SpecificHumidity_IsbL-0900_RLatLon0.09_PT047H.grib2 2026-05-08 02:54 724K
20260508T00Z_MSC_RDPS_SpecificHumidity_IsbL-0925_RLatLon0.09_PT047H.grib2 2026-05-08 02:54 727K
20260508T00Z_MSC_RDPS_SpecificHumidity_IsbL-0950_RLatLon0.09_PT047H.grib2 2026-05-08 02:54 724K
20260508T00Z_MSC_RDPS_SpecificHumidity_IsbL-0970_RLatLon0.09_PT047H.grib2 2026-05-08 02:54 718K
20260508T00Z_MSC_RDPS_SpecificHumidity_IsbL-0985_RLatLon0.09_PT047H.grib2 2026-05-08 02:54 708K
20260508T00Z_MSC_RDPS_SpecificHumidity_IsbL-1000_RLatLon0.09_PT047H.grib2 2026-05-08 02:54 701K
20260508T00Z_MSC_RDPS_SpecificHumidity_IsbL-1015_RLatLon0.09_PT047H.grib2 2026-05-08 02:54 690K
20260508T00Z_MSC_RDPS_SpecificHumidity_Sfc_RLatLon0.09_PT047H.grib2 2026-05-08 02:54 353K
20260508T00Z_MSC_RDPS_StormRelativeHelicity_EtaL-10000_RLatLon0.09_PT047H.grib2 2026-05-08 02:54 1.1M
20260508T00Z_MSC_RDPS_StormSeverityIndex_EtaL-10000_RLatLon0.09_PT047H.grib2 2026-05-08 02:54 1.1M
20260508T00Z_MSC_RDPS_Thickness_IsbL-0850to0700_RLatLon0.09_PT047H.grib2 2026-05-08 02:54 250K
20260508T00Z_MSC_RDPS_Thickness_IsbL-1000to0500_RLatLon0.09_PT047H.grib2 2026-05-08 02:54 197K
20260508T00Z_MSC_RDPS_Thickness_IsbL-1000to0850_RLatLon0.09_PT047H.grib2 2026-05-08 02:54 262K
20260508T00Z_MSC_RDPS_TotalCloudCover_Sfc_RLatLon0.09_PT047H.grib2 2026-05-08 02:54 662K
20260508T00Z_MSC_RDPS_TotalTotalsIndex_Sfc_RLatLon0.09_PT047H.grib2 2026-05-08 02:54 2.5M
20260508T00Z_MSC_RDPS_UVIndex-ClearSky_Sfc_RLatLon0.09_PT047H.grib2 2026-05-08 02:54 208K
20260508T00Z_MSC_RDPS_UVIndex_Sfc_RLatLon0.09_PT047H.grib2 2026-05-08 02:54 464K
20260508T00Z_MSC_RDPS_UpwardLongwaveRadiationFlux_NTAtm_RLatLon0.09_PT047H.grib2 2026-05-08 02:54 386K
20260508T00Z_MSC_RDPS_UpwardShortwaveRadiationFlux_NTAtm_RLatLon0.09_PT047H.grib2 2026-05-08 02:54 414K
20260508T00Z_MSC_RDPS_VerticalVelocity_IsbL-0250_RLatLon0.09_PT047H.grib2 2026-05-08 02:54 576K
20260508T00Z_MSC_RDPS_VerticalVelocity_IsbL-0500_RLatLon0.09_PT047H.grib2 2026-05-08 02:54 541K
20260508T00Z_MSC_RDPS_VerticalVelocity_IsbL-0700_RLatLon0.09_PT047H.grib2 2026-05-08 02:54 605K
20260508T00Z_MSC_RDPS_VerticalVelocity_IsbL-0850_RLatLon0.09_PT047H.grib2 2026-05-08 02:54 708K
20260508T00Z_MSC_RDPS_VerticalWindShear_EtaL-6500_RLatLon0.09_PT047H.grib2 2026-05-08 02:54 1.2M
20260508T00Z_MSC_RDPS_WindChill_Sfc_RLatLon0.09_PT047H.grib2 2026-05-08 02:54 1.2M
20260508T00Z_MSC_RDPS_WindDir_AGL-10m_RLatLon0.09_PT047H.grib2 2026-05-08 02:54 950K
20260508T00Z_MSC_RDPS_WindDir_AGL-120m_RLatLon0.09_PT047H.grib2 2026-05-08 02:54 598K
20260508T00Z_MSC_RDPS_WindDir_AGL-40m_RLatLon0.09_PT047H.grib2 2026-05-08 02:54 620K
20260508T00Z_MSC_RDPS_WindDir_AGL-80m_RLatLon0.09_PT047H.grib2 2026-05-08 02:54 607K
20260508T00Z_MSC_RDPS_WindDir_IsbL-0001_RLatLon0.09_PT047H.grib2 2026-05-08 02:54 276K
20260508T00Z_MSC_RDPS_WindDir_IsbL-0005_RLatLon0.09_PT047H.grib2 2026-05-08 02:54 357K
20260508T00Z_MSC_RDPS_WindDir_IsbL-0010_RLatLon0.09_PT047H.grib2 2026-05-08 02:54 388K
20260508T00Z_MSC_RDPS_WindDir_IsbL-0020_RLatLon0.09_PT047H.grib2 2026-05-08 02:54 425K
20260508T00Z_MSC_RDPS_WindDir_IsbL-0030_RLatLon0.09_PT047H.grib2 2026-05-08 02:54 427K
20260508T00Z_MSC_RDPS_WindDir_IsbL-0050_RLatLon0.09_PT047H.grib2 2026-05-08 02:54 426K
20260508T00Z_MSC_RDPS_WindDir_IsbL-0100_RLatLon0.09_PT047H.grib2 2026-05-08 02:54 416K
20260508T00Z_MSC_RDPS_WindDir_IsbL-0150_RLatLon0.09_PT047H.grib2 2026-05-08 02:54 419K
20260508T00Z_MSC_RDPS_WindDir_IsbL-0175_RLatLon0.09_PT047H.grib2 2026-05-08 02:54 449K
20260508T00Z_MSC_RDPS_WindDir_IsbL-0200_RLatLon0.09_PT047H.grib2 2026-05-08 02:54 462K
20260508T00Z_MSC_RDPS_WindDir_IsbL-0225_RLatLon0.09_PT047H.grib2 2026-05-08 02:54 464K
20260508T00Z_MSC_RDPS_WindDir_IsbL-0250_RLatLon0.09_PT047H.grib2 2026-05-08 02:54 466K
20260508T00Z_MSC_RDPS_WindDir_IsbL-0275_RLatLon0.09_PT047H.grib2 2026-05-08 02:54 483K
20260508T00Z_MSC_RDPS_WindDir_IsbL-0300_RLatLon0.09_PT047H.grib2 2026-05-08 02:54 477K
20260508T00Z_MSC_RDPS_WindDir_IsbL-0350_RLatLon0.09_PT047H.grib2 2026-05-08 02:54 501K
20260508T00Z_MSC_RDPS_WindDir_IsbL-0400_RLatLon0.09_PT047H.grib2 2026-05-08 02:54 526K
20260508T00Z_MSC_RDPS_WindDir_IsbL-0450_RLatLon0.09_PT047H.grib2 2026-05-08 02:54 548K
20260508T00Z_MSC_RDPS_WindDir_IsbL-0500_RLatLon0.09_PT047H.grib2 2026-05-08 02:54 566K
20260508T00Z_MSC_RDPS_WindDir_IsbL-0550_RLatLon0.09_PT047H.grib2 2026-05-08 02:54 576K
20260508T00Z_MSC_RDPS_WindDir_IsbL-0600_RLatLon0.09_PT047H.grib2 2026-05-08 02:54 597K
20260508T00Z_MSC_RDPS_WindDir_IsbL-0650_RLatLon0.09_PT047H.grib2 2026-05-08 02:54 637K
20260508T00Z_MSC_RDPS_WindDir_IsbL-0700_RLatLon0.09_PT047H.grib2 2026-05-08 02:54 685K
20260508T00Z_MSC_RDPS_WindDir_IsbL-0750_RLatLon0.09_PT047H.grib2 2026-05-08 02:54 738K
20260508T00Z_MSC_RDPS_WindDir_IsbL-0800_RLatLon0.09_PT047H.grib2 2026-05-08 02:54 801K
20260508T00Z_MSC_RDPS_WindDir_IsbL-0850_RLatLon0.09_PT047H.grib2 2026-05-08 02:54 862K
20260508T00Z_MSC_RDPS_WindDir_IsbL-0875_RLatLon0.09_PT047H.grib2 2026-05-08 02:54 881K
20260508T00Z_MSC_RDPS_WindDir_IsbL-0900_RLatLon0.09_PT047H.grib2 2026-05-08 02:54 895K
20260508T00Z_MSC_RDPS_WindDir_IsbL-0925_RLatLon0.09_PT047H.grib2 2026-05-08 02:54 902K
20260508T00Z_MSC_RDPS_WindDir_IsbL-0950_RLatLon0.09_PT047H.grib2 2026-05-08 02:54 901K
20260508T00Z_MSC_RDPS_WindDir_IsbL-0970_RLatLon0.09_PT047H.grib2 2026-05-08 02:54 902K
20260508T00Z_MSC_RDPS_WindDir_IsbL-0985_RLatLon0.09_PT047H.grib2 2026-05-08 02:54 912K
20260508T00Z_MSC_RDPS_WindDir_IsbL-1000_RLatLon0.09_PT047H.grib2 2026-05-08 02:54 928K
20260508T00Z_MSC_RDPS_WindDir_IsbL-1015_RLatLon0.09_PT047H.grib2 2026-05-08 02:54 943K
20260508T00Z_MSC_RDPS_WindGust-Max_AGL-10m_RLatLon0.09_PT047H.grib2 2026-05-08 02:54 1.0M
20260508T00Z_MSC_RDPS_WindGust-Min_AGL-10m_RLatLon0.09_PT047H.grib2 2026-05-08 02:54 1.0M
20260508T00Z_MSC_RDPS_WindGust_AGL-10m_RLatLon0.09_PT047H.grib2 2026-05-08 02:54 1.0M
20260508T00Z_MSC_RDPS_WindSpeed_AGL-10m_RLatLon0.09_PT047H.grib2 2026-05-08 02:54 843K
20260508T00Z_MSC_RDPS_WindSpeed_AGL-120m_RLatLon0.09_PT047H.grib2 2026-05-08 02:54 537K
20260508T00Z_MSC_RDPS_WindSpeed_AGL-40m_RLatLon0.09_PT047H.grib2 2026-05-08 02:54 673K
20260508T00Z_MSC_RDPS_WindSpeed_AGL-80m_RLatLon0.09_PT047H.grib2 2026-05-08 02:54 539K
20260508T00Z_MSC_RDPS_WindSpeed_IsbL-0001_RLatLon0.09_PT047H.grib2 2026-05-08 02:54 250K
20260508T00Z_MSC_RDPS_WindSpeed_IsbL-0005_RLatLon0.09_PT047H.grib2 2026-05-08 02:54 383K
20260508T00Z_MSC_RDPS_WindSpeed_IsbL-0010_RLatLon0.09_PT047H.grib2 2026-05-08 02:54 369K
20260508T00Z_MSC_RDPS_WindSpeed_IsbL-0020_RLatLon0.09_PT047H.grib2 2026-05-08 02:54 326K
20260508T00Z_MSC_RDPS_WindSpeed_IsbL-0030_RLatLon0.09_PT047H.grib2 2026-05-08 02:54 322K
20260508T00Z_MSC_RDPS_WindSpeed_IsbL-0050_RLatLon0.09_PT047H.grib2 2026-05-08 02:54 342K
20260508T00Z_MSC_RDPS_WindSpeed_IsbL-0100_RLatLon0.09_PT047H.grib2 2026-05-08 02:54 475K
20260508T00Z_MSC_RDPS_WindSpeed_IsbL-0150_RLatLon0.09_PT047H.grib2 2026-05-08 02:54 378K
20260508T00Z_MSC_RDPS_WindSpeed_IsbL-0175_RLatLon0.09_PT047H.grib2 2026-05-08 02:54 405K
20260508T00Z_MSC_RDPS_WindSpeed_IsbL-0200_RLatLon0.09_PT047H.grib2 2026-05-08 02:54 441K
20260508T00Z_MSC_RDPS_WindSpeed_IsbL-0225_RLatLon0.09_PT047H.grib2 2026-05-08 02:54 447K
20260508T00Z_MSC_RDPS_WindSpeed_IsbL-0250_RLatLon0.09_PT047H.grib2 2026-05-08 02:54 453K
20260508T00Z_MSC_RDPS_WindSpeed_IsbL-0275_RLatLon0.09_PT047H.grib2 2026-05-08 02:54 470K
20260508T00Z_MSC_RDPS_WindSpeed_IsbL-0300_RLatLon0.09_PT047H.grib2 2026-05-08 02:54 467K
20260508T00Z_MSC_RDPS_WindSpeed_IsbL-0350_RLatLon0.09_PT047H.grib2 2026-05-08 02:54 475K
20260508T00Z_MSC_RDPS_WindSpeed_IsbL-0400_RLatLon0.09_PT047H.grib2 2026-05-08 02:54 479K
20260508T00Z_MSC_RDPS_WindSpeed_IsbL-0450_RLatLon0.09_PT047H.grib2 2026-05-08 02:54 468K
20260508T00Z_MSC_RDPS_WindSpeed_IsbL-0500_RLatLon0.09_PT047H.grib2 2026-05-08 02:54 470K
20260508T00Z_MSC_RDPS_WindSpeed_IsbL-0550_RLatLon0.09_PT047H.grib2 2026-05-08 02:54 470K
20260508T00Z_MSC_RDPS_WindSpeed_IsbL-0600_RLatLon0.09_PT047H.grib2 2026-05-08 02:54 599K
20260508T00Z_MSC_RDPS_WindSpeed_IsbL-0650_RLatLon0.09_PT047H.grib2 2026-05-08 02:54 662K
20260508T00Z_MSC_RDPS_WindSpeed_IsbL-0700_RLatLon0.09_PT047H.grib2 2026-05-08 02:54 690K
20260508T00Z_MSC_RDPS_WindSpeed_IsbL-0750_RLatLon0.09_PT047H.grib2 2026-05-08 02:54 723K
20260508T00Z_MSC_RDPS_WindSpeed_IsbL-0800_RLatLon0.09_PT047H.grib2 2026-05-08 02:54 770K
20260508T00Z_MSC_RDPS_WindSpeed_IsbL-0850_RLatLon0.09_PT047H.grib2 2026-05-08 02:54 821K
20260508T00Z_MSC_RDPS_WindSpeed_IsbL-0875_RLatLon0.09_PT047H.grib2 2026-05-08 02:54 833K
20260508T00Z_MSC_RDPS_WindSpeed_IsbL-0900_RLatLon0.09_PT047H.grib2 2026-05-08 02:54 855K
20260508T00Z_MSC_RDPS_WindSpeed_IsbL-0925_RLatLon0.09_PT047H.grib2 2026-05-08 02:54 866K
20260508T00Z_MSC_RDPS_WindSpeed_IsbL-0950_RLatLon0.09_PT047H.grib2 2026-05-08 02:54 868K
20260508T00Z_MSC_RDPS_WindSpeed_IsbL-0970_RLatLon0.09_PT047H.grib2 2026-05-08 02:54 863K
20260508T00Z_MSC_RDPS_WindSpeed_IsbL-0985_RLatLon0.09_PT047H.grib2 2026-05-08 02:54 859K
20260508T00Z_MSC_RDPS_WindSpeed_IsbL-1000_RLatLon0.09_PT047H.grib2 2026-05-08 02:54 854K
20260508T00Z_MSC_RDPS_WindSpeed_IsbL-1015_RLatLon0.09_PT047H.grib2 2026-05-08 02:54 845K
20260508T00Z_MSC_RDPS_WindU_AGL-10m_RLatLon0.09_PT047H.grib2 2026-05-08 02:54 434K
20260508T00Z_MSC_RDPS_WindU_AGL-120m_RLatLon0.09_PT047H.grib2 2026-05-08 02:54 535K
20260508T00Z_MSC_RDPS_WindU_AGL-40m_RLatLon0.09_PT047H.grib2 2026-05-08 02:54 539K
20260508T00Z_MSC_RDPS_WindU_AGL-80m_RLatLon0.09_PT047H.grib2 2026-05-08 02:54 536K
20260508T00Z_MSC_RDPS_WindU_IsbL-0001_RLatLon0.09_PT047H.grib2 2026-05-08 02:54 293K
20260508T00Z_MSC_RDPS_WindU_IsbL-0005_RLatLon0.09_PT047H.grib2 2026-05-08 02:54 287K
20260508T00Z_MSC_RDPS_WindU_IsbL-0010_RLatLon0.09_PT047H.grib2 2026-05-08 02:54 300K
20260508T00Z_MSC_RDPS_WindU_IsbL-0020_RLatLon0.09_PT047H.grib2 2026-05-08 02:54 354K
20260508T00Z_MSC_RDPS_WindU_IsbL-0030_RLatLon0.09_PT047H.grib2 2026-05-08 02:54 313K
20260508T00Z_MSC_RDPS_WindU_IsbL-0050_RLatLon0.09_PT047H.grib2 2026-05-08 02:54 374K
20260508T00Z_MSC_RDPS_WindU_IsbL-0100_RLatLon0.09_PT047H.grib2 2026-05-08 02:54 431K
20260508T00Z_MSC_RDPS_WindU_IsbL-0150_RLatLon0.09_PT047H.grib2 2026-05-08 02:54 395K
20260508T00Z_MSC_RDPS_WindU_IsbL-0175_RLatLon0.09_PT047H.grib2 2026-05-08 02:54 420K
20260508T00Z_MSC_RDPS_WindU_IsbL-0200_RLatLon0.09_PT047H.grib2 2026-05-08 02:54 434K
20260508T00Z_MSC_RDPS_WindU_IsbL-0225_RLatLon0.09_PT047H.grib2 2026-05-08 02:54 438K
20260508T00Z_MSC_RDPS_WindU_IsbL-0250_RLatLon0.09_PT047H.grib2 2026-05-08 02:54 342K
20260508T00Z_MSC_RDPS_WindU_IsbL-0275_RLatLon0.09_PT047H.grib2 2026-05-08 02:54 356K
20260508T00Z_MSC_RDPS_WindU_IsbL-0300_RLatLon0.09_PT047H.grib2 2026-05-08 02:54 352K
20260508T00Z_MSC_RDPS_WindU_IsbL-0350_RLatLon0.09_PT047H.grib2 2026-05-08 02:54 359K
20260508T00Z_MSC_RDPS_WindU_IsbL-0400_RLatLon0.09_PT047H.grib2 2026-05-08 02:54 465K
20260508T00Z_MSC_RDPS_WindU_IsbL-0450_RLatLon0.09_PT047H.grib2 2026-05-08 02:54 471K
20260508T00Z_MSC_RDPS_WindU_IsbL-0500_RLatLon0.09_PT047H.grib2 2026-05-08 02:54 475K
20260508T00Z_MSC_RDPS_WindU_IsbL-0550_RLatLon0.09_PT047H.grib2 2026-05-08 02:54 478K
20260508T00Z_MSC_RDPS_WindU_IsbL-0600_RLatLon0.09_PT047H.grib2 2026-05-08 02:54 471K
20260508T00Z_MSC_RDPS_WindU_IsbL-0650_RLatLon0.09_PT047H.grib2 2026-05-08 02:54 490K
20260508T00Z_MSC_RDPS_WindU_IsbL-0700_RLatLon0.09_PT047H.grib2 2026-05-08 02:54 515K
20260508T00Z_MSC_RDPS_WindU_IsbL-0750_RLatLon0.09_PT047H.grib2 2026-05-08 02:54 544K
20260508T00Z_MSC_RDPS_WindU_IsbL-0800_RLatLon0.09_PT047H.grib2 2026-05-08 02:54 584K
20260508T00Z_MSC_RDPS_WindU_IsbL-0850_RLatLon0.09_PT047H.grib2 2026-05-08 02:54 627K
20260508T00Z_MSC_RDPS_WindU_IsbL-0875_RLatLon0.09_PT047H.grib2 2026-05-08 02:54 642K
20260508T00Z_MSC_RDPS_WindU_IsbL-0900_RLatLon0.09_PT047H.grib2 2026-05-08 02:54 655K
20260508T00Z_MSC_RDPS_WindU_IsbL-0925_RLatLon0.09_PT047H.grib2 2026-05-08 02:54 661K
20260508T00Z_MSC_RDPS_WindU_IsbL-0950_RLatLon0.09_PT047H.grib2 2026-05-08 02:54 659K
20260508T00Z_MSC_RDPS_WindU_IsbL-0970_RLatLon0.09_PT047H.grib2 2026-05-08 02:54 654K
20260508T00Z_MSC_RDPS_WindU_IsbL-0985_RLatLon0.09_PT047H.grib2 2026-05-08 02:54 792K
20260508T00Z_MSC_RDPS_WindU_IsbL-1000_RLatLon0.09_PT047H.grib2 2026-05-08 02:54 788K
20260508T00Z_MSC_RDPS_WindU_IsbL-1015_RLatLon0.09_PT047H.grib2 2026-05-08 02:54 828K
20260508T00Z_MSC_RDPS_WindV_AGL-10m_RLatLon0.09_PT047H.grib2 2026-05-08 02:54 435K
20260508T00Z_MSC_RDPS_WindV_AGL-120m_RLatLon0.09_PT047H.grib2 2026-05-08 02:54 534K
20260508T00Z_MSC_RDPS_WindV_AGL-40m_RLatLon0.09_PT047H.grib2 2026-05-08 02:54 538K
20260508T00Z_MSC_RDPS_WindV_AGL-80m_RLatLon0.09_PT047H.grib2 2026-05-08 02:54 535K
20260508T00Z_MSC_RDPS_WindV_IsbL-0001_RLatLon0.09_PT047H.grib2 2026-05-08 02:54 293K
20260508T00Z_MSC_RDPS_WindV_IsbL-0005_RLatLon0.09_PT047H.grib2 2026-05-08 02:54 287K
20260508T00Z_MSC_RDPS_WindV_IsbL-0010_RLatLon0.09_PT047H.grib2 2026-05-08 02:54 300K
20260508T00Z_MSC_RDPS_WindV_IsbL-0020_RLatLon0.09_PT047H.grib2 2026-05-08 02:54 316K
20260508T00Z_MSC_RDPS_WindV_IsbL-0030_RLatLon0.09_PT047H.grib2 2026-05-08 02:54 314K
20260508T00Z_MSC_RDPS_WindV_IsbL-0050_RLatLon0.09_PT047H.grib2 2026-05-08 02:54 337K
20260508T00Z_MSC_RDPS_WindV_IsbL-0100_RLatLon0.09_PT047H.grib2 2026-05-08 02:54 428K
20260508T00Z_MSC_RDPS_WindV_IsbL-0150_RLatLon0.09_PT047H.grib2 2026-05-08 02:54 393K
20260508T00Z_MSC_RDPS_WindV_IsbL-0175_RLatLon0.09_PT047H.grib2 2026-05-08 02:54 417K
20260508T00Z_MSC_RDPS_WindV_IsbL-0200_RLatLon0.09_PT047H.grib2 2026-05-08 02:54 335K
20260508T00Z_MSC_RDPS_WindV_IsbL-0225_RLatLon0.09_PT047H.grib2 2026-05-08 02:54 339K
20260508T00Z_MSC_RDPS_WindV_IsbL-0250_RLatLon0.09_PT047H.grib2 2026-05-08 02:54 367K
20260508T00Z_MSC_RDPS_WindV_IsbL-0275_RLatLon0.09_PT047H.grib2 2026-05-08 02:54 380K
20260508T00Z_MSC_RDPS_WindV_IsbL-0300_RLatLon0.09_PT047H.grib2 2026-05-08 02:54 351K
20260508T00Z_MSC_RDPS_WindV_IsbL-0350_RLatLon0.09_PT047H.grib2 2026-05-08 02:54 359K
20260508T00Z_MSC_RDPS_WindV_IsbL-0400_RLatLon0.09_PT047H.grib2 2026-05-08 02:54 361K
20260508T00Z_MSC_RDPS_WindV_IsbL-0450_RLatLon0.09_PT047H.grib2 2026-05-08 02:54 469K
20260508T00Z_MSC_RDPS_WindV_IsbL-0500_RLatLon0.09_PT047H.grib2 2026-05-08 02:54 471K
20260508T00Z_MSC_RDPS_WindV_IsbL-0550_RLatLon0.09_PT047H.grib2 2026-05-08 02:54 472K
20260508T00Z_MSC_RDPS_WindV_IsbL-0600_RLatLon0.09_PT047H.grib2 2026-05-08 02:54 483K
20260508T00Z_MSC_RDPS_WindV_IsbL-0650_RLatLon0.09_PT047H.grib2 2026-05-08 02:54 500K
20260508T00Z_MSC_RDPS_WindV_IsbL-0700_RLatLon0.09_PT047H.grib2 2026-05-08 02:54 523K
20260508T00Z_MSC_RDPS_WindV_IsbL-0750_RLatLon0.09_PT047H.grib2 2026-05-08 02:54 538K
20260508T00Z_MSC_RDPS_WindV_IsbL-0800_RLatLon0.09_PT047H.grib2 2026-05-08 02:54 578K
20260508T00Z_MSC_RDPS_WindV_IsbL-0850_RLatLon0.09_PT047H.grib2 2026-05-08 02:54 623K
20260508T00Z_MSC_RDPS_WindV_IsbL-0875_RLatLon0.09_PT047H.grib2 2026-05-08 02:54 639K
20260508T00Z_MSC_RDPS_WindV_IsbL-0900_RLatLon0.09_PT047H.grib2 2026-05-08 02:54 653K
20260508T00Z_MSC_RDPS_WindV_IsbL-0925_RLatLon0.09_PT047H.grib2 2026-05-08 02:54 660K
20260508T00Z_MSC_RDPS_WindV_IsbL-0950_RLatLon0.09_PT047H.grib2 2026-05-08 02:54 661K
20260508T00Z_MSC_RDPS_WindV_IsbL-0970_RLatLon0.09_PT047H.grib2 2026-05-08 02:54 799K
20260508T00Z_MSC_RDPS_WindV_IsbL-0985_RLatLon0.09_PT047H.grib2 2026-05-08 02:54 794K
20260508T00Z_MSC_RDPS_WindV_IsbL-1000_RLatLon0.09_PT047H.grib2 2026-05-08 02:54 789K
20260508T00Z_MSC_RDPS_WindV_IsbL-1015_RLatLon0.09_PT047H.grib2 2026-05-08 02:54 830K